Flag for Germany Weather past 2 weeks in Wetzlar, Hesse, Germany

Now
53 °F

Sunny.


Feels Like: 53 °F
Forecast: 46 / 74 °F
Wind: 1 mph from West

Location: Giessen

Current Time: Jun 3, 2015 at 7:46:22 AM

Latest Report: Jun 3, 2015 at 7:00 AM


Visibility: 19 mi

Pressure: 30.07 "Hg

Humidity: 85%

Dew point: 49 °F

Location of WetzlarLocation

Historic Weather in Wetzlar — Graph

°F

Wetzlar temperature yesterday

Maximum temperature yesterday: 76 °F (at 6:00 PM)
Minimum temperature yesterday: 46 °F (at 5:00 AM)
Average temperature yesterday: 61 °F

Past Weeks' High & Low Weather Summary

 TemperatureHumidityPressure
High76 °F (Jun 2, 6:00 PM)97% (May 25, 4:00 AM)30.36 "Hg (May 25, 4:00 AM)
Low36 °F (May 27, 3:00 AM)34% (May 21, 5:00 PM)29.75 "Hg (May 19, 7:00 AM)
Average55 °F68%30.04 "Hg
* Reported May 19 7:00 AM — Jun 3 7:00 AM, Wetzlar, Weather by CustomWeather, © 2015

Note: Actual official high and low records may vary slightly from our data, if they occured in-between our weather recording intervals... More about our weather records

Advertising

Wetzlar weather history for previous 24 hours

 ConditionsComfort  
Time TempWeatherWind HumidityBarometerVisibility
7:00 AM
Wed, Jun 3
53 °FSunny.1 mph85%30.07 "Hg19 mi
6:00 AM50 °FSunny.2 mph90%30.06 "Hg25 mi
5:00 AM52 °FClear.1 mph87%30.04 "Hg31 mi
4:00 AM53 °FClear.1 mph83%30.03 "Hg31 mi
3:00 AM54 °FClear.1 mph79%30.03 "Hg37 mi
2:00 AM57 °FClear.1 mph73%30.02 "Hg43 mi
1:00 AM62 °FClear.3 mph60%30.00 "Hg43 mi
12:00 AM65 °FClear.3 mph52%29.99 "Hg43 mi
11:00 PM
Tue, Jun 2
63 °FPassing clouds.3 mph59%30.00 "Hg43 mi
10:00 PM65 °FPassing clouds.5 mph54%29.97 "Hg43 mi
9:00 PM70 °FPassing clouds.7 mph44%29.95 "Hg43 mi
8:00 PM74 °FPartly sunny.8 mph39%29.93 "Hg19 mi
7:00 PM74 °FPassing clouds.10 mph41%29.93 "Hg25 mi
6:00 PM76 °FScattered clouds.13 mph38%29.93 "Hg10 mi
5:00 PM76 °FPartly sunny.12 mph38%29.92 "Hg19 mi
4:00 PM71 °FPartly sunny.9 mph40%29.93 "Hg37 mi
3:00 PM73 °FScattered clouds.9 mph39%29.95 "Hg28 mi
2:00 PM66 °FOvercast.8 mph47%29.97 "Hg31 mi
1:00 PM63 °FOvercast.8 mph56%29.97 "Hg34 mi
12:00 PM61 °FOvercast.9 mph58%29.98 "Hg31 mi
11:00 AM60 °FOvercast.10 mph56%29.97 "Hg22 mi
10:00 AM59 °FOvercast.9 mph65%29.97 "Hg25 mi
9:00 AM57 °FOvercast.7 mph80%29.98 "Hg22 mi
8:00 AM51 °FOvercast.1 mph93%29.98 "Hg6 mi
7:00 AM49 °FOvercast.2 mph92%29.98 "Hg7 mi
Weather by CustomWeather, © 2015

See weather overviewHow to use our weather pages